DW4221 Weather Reports


time (UTC)temp
F
wind
direction
speed
knots
gust
knots
rain 1hr
in
rain 24hr
in
rain mn
in
humidity
%
barometer
mb
20260906204611 82 198 2.6 7.8 0.00 0.00 0.00 67 1019.5
20260906203101 82 152 2.6 7.8 0.00 0.00 0.00 67 1019.6
20260906201609 82 191 1.7 6.1 0.00 0.00 0.00 68 1019.7
20260906194557 81 257 2.6 6.1 0.00 0.00 0.00 70 1019.9
20260906193107 81 186 1.7 6.1 0.00 0.00 0.00 71 1019.8
20260906191605 80 209 1.7 6.1 0.00 0.00 0.00 73 1019.8
20260906190113 80 140 1.7 6.1 0.00 0.00 0.00 68 1020.1
20260906184600 80 0 1.7 7.0 0.00 0.00 0.00 72 1020.3
20260906183108 78 130 1.7 7.8 0.00 0.00 0.00 75 1020.3
20260906181610 77 202 0.9 7.0 0.00 0.00 0.00 77 1020.6
20260906180114 77 254 1.7 7.8 0.00 0.00 0.00 78 1020.8
20260906174554 78 197 0.9 6.1 0.00 0.00 0.00 78 1021.0
20260906173053 77 188 1.7 7.0 0.00 0.00 0.00 77 1021.1
20260906171603 77 106 1.7 9.6 0.00 0.00 0.00 78 1021.3
20260906170126 76 179 2.6 5.2 0.00 0.00 0.00 80 1021.4
20260906164558 75 215 0.9 4.3 0.00 0.00 0.00 81 1021.4
20260906163111 73 170 0.9 6.1 0.00 0.00 0.00 82 1021.5
20260906161611 72 153 1.7 4.3 0.00 0.00 0.00 83 1021.5
20260906160100 71 140 0.0 3.5 0.00 0.00 0.00 84 1021.5
20260906154554 70 0 0.0 5.2 0.00 0.00 0.00 85 1021.5
20260906153104 68 0 0.0 4.3 0.00 0.00 0.00 86 1021.4
20260906151613 67 151 0.0 4.3 0.00 0.00 0.00 86 1021.6
20260906150105 65 132 0.9 3.5 0.00 0.00 0.00 88 1021.7
20260906144552 64 0 0.0 1.7 0.00 0.00 0.00 89 1021.6
20260906143130 64 0 0.0 2.6 0.00 0.00 0.00 88 1021.8
20260906141604 64 0 0.0 5.2 0.00 0.00 0.00 89 1021.7
20260906140056 61 0 0.0 3.5 0.00 0.00 0.00 94 1021.6
20260906134614 59 0 0.0 2.6 0.00 0.00 0.00 96 1021.8
20260906133059 58 0 0.0 2.6 0.00 0.00 0.00 98 1022.0
20260906131601 58 0 0.0 0.0 0.00 0.00 0.00 99 1021.9
20260906130116 57 0 0.0 0.0 0.00 0.00 0.00 99 1021.7
20260906124602 56 0 0.0 0.0 0.00 0.00 0.00 99 1021.6
20260906123135 55 0 0.0 0.0 0.00 0.00 0.00 99 1021.8
20260906121554 54 0 0.0 0.0 0.00 0.00 0.00 99 1021.7
20260906120054 53 0 0.0 0.0 0.00 0.00 0.00 98 1021.5
20260906114606 53 0 0.0 0.0 0.00 0.00 0.00 98 1021.3
20260906113058 53 0 0.0 0.0 0.00 0.00 0.00 98 1021.0
20260906111606 53 0 0.0 0.0 0.00 0.00 0.00 98 1020.8
20260906110106 53 0 0.0 0.0 0.00 0.00 0.00 98 1020.9
20260906104602 53 0 0.0 0.0 0.00 0.00 0.00 98 1020.7
20260906103106 53 0 0.0 0.0 0.00 0.00 0.00 98 1020.7
20260906101553 54 0 0.0 0.0 0.00 0.00 0.00 97 1020.7
20260906100109 54 0 0.0 0.0 0.00 0.00 0.00 97 1020.6
20260906094607 55 0 0.0 0.0 0.00 0.00 0.00 97 1020.4
20260906093056 55 0 0.0 0.0 0.00 0.00 0.00 98 1020.2
20260906091607 55 0 0.0 0.0 0.00 0.00 0.00 97 1020.2
20260906090100 55 0 0.0 0.0 0.00 0.00 0.00 98 1020.4
20260906084606 56 0 0.0 0.0 0.00 0.00 0.00 97 1020.5
20260906083055 56 0 0.0 0.0 0.00 0.00 0.00 97 1020.6
20260906081604 56 0 0.0 0.0 0.00 0.00 0.00 97 1020.9
20260906080103 57 0 0.0 0.0 0.00 0.00 0.00 97 1021.0
20260906074600 57 0 0.0 0.0 0.00 0.00 0.00 98 1021.0
20260906073055 58 0 0.0 0.0 0.00 0.00 0.00 97 1021.1
20260906071602 58 0 0.0 0.0 0.00 0.00 0.00 98 1021.4
20260906070105 58 0 0.0 0.0 0.00 0.00 0.00 97 1021.3
20260906064606 58 0 0.0 0.0 0.00 0.00 0.00 98 1021.4
20260906063106 58 0 0.0 0.0 0.00 0.00 0.00 98 1021.3
20260906061555 58 0 0.0 0.0 0.00 0.00 0.00 97 1021.4
20260906060052 58 0 0.0 0.0 0.00 0.00 0.00 97 1021.3
20260906054557 58 0 0.0 0.9 0.00 0.00 0.00 97 1021.1
20260906053104 59 0 0.0 0.0 0.00 0.00 0.00 97 1021.2
20260906051554 59 0 0.0 0.9 0.00 0.00 0.00 97 1021.2
20260906050104 59 0 0.0 1.7 0.00 0.00 0.00 97 1021.4
20260906044555 58 0 0.0 0.0 0.00 0.00 0.00 97 1021.4
20260906043100 59 0 0.0 0.0 0.00 0.00 0.00 96 1021.4
20260906041557 59 0 0.0 0.0 0.00 0.00 0.00 95 1021.3
20260906040103 60 0 0.0 0.0 0.00 0.00 0.00 95 1021.1
20260906034555 60 0 0.0 0.0 0.00 0.00 0.00 95 1020.8
20260906033116 61 0 0.0 0.9 0.00 0.00 0.00 94 1020.8
20260906031600 62 0 0.0 0.9 0.00 0.00 0.00 93 1020.9
20260906030059 62 0 0.0 0.9 0.00 0.00 0.00 92 1020.5
20260906024608 63 0 0.0 0.0 0.00 0.00 0.00 92 1020.5
20260906023055 63 0 0.0 1.7 0.00 0.00 0.00 92 1020.4
20260906021606 64 128 0.0 1.7 0.00 0.00 0.00 92 1020.3
20260906020109 64 0 0.0 0.9 0.00 0.00 0.00 92 1020.1
20260906014556 65 0 0.0 0.9 0.00 0.00 0.00 91 1019.8
20260906013106 66 0 0.0 3.5 0.00 0.00 0.00 91 1019.4
20260906011602 66 0 0.0 2.6 0.00 0.00 0.00 90 1019.3
20260906010057 67 0 0.0 4.3 0.00 0.00 0.00 89 1019.3
20260906004610 67 158 0.9 5.2 0.00 0.00 0.00 89 1019.1
20260906003057 68 144 0.0 1.7 0.00 0.00 0.00 88 1019.2
20260906001609 68 0 0.0 0.0 0.00 0.00 0.00 87 1019.1
20260906000057 69 0 0.0 4.3 0.00 0.00 0.00 84 1019.1
20260905234557 70 165 0.9 4.3 0.00 0.00 0.00 83 1018.8
20260905233053 70 145 0.9 3.5 0.00 0.00 0.00 83 1018.7
20260905231609 70 0 2.6 6.1 0.00 0.00 0.00 82 1019.1
20260905230105 70 0 0.9 5.2 0.00 0.00 0.00 81 1019.2
20260905224556 70 108 2.6 7.8 0.00 0.00 0.00 81 1019.3
20260905223055 70 111 2.6 6.1 0.00 0.00 0.00 82 1019.4
20260905221604 70 157 1.7 7.0 0.00 0.00 0.00 83 1019.7
20260905220105 71 98 0.9 5.2 0.00 0.00 0.00 83 1019.5
20260905214602 70 163 1.7 7.0 0.00 0.00 0.00 83 1019.9
20260905213053 71 128 1.7 6.1 0.00 0.00 0.00 83 1019.9
20260905211602 71 90 0.9 5.2 0.00 0.00 0.00 83 1020.2
20260905210115 70 0 0.0 3.5 0.00 0.00 0.00 83 1020.6